KT2UU-13 Weather Reports


Display with metric or nautical units.
time (UTC)temp
F
wind
direction
speed
MPH
gust
MPH
rain 1hr
in
rain 24hr
in
rain mn
in
humidity
%
barometer
mb
20260506204005 77 239 0.0 3.0 0.00 0.01 0.01 80 1013.3
20260506203503 77 207 0.0 3.0 0.00 0.01 0.01 80 1013.2
20260506202959 77 190 0.0 2.0 0.00 0.01 0.01 80 1013.2
20260506202456 77 109 0.0 2.0 0.00 0.01 0.01 79 1013.2
20260506201952 77 93 0.0 1.0 0.00 0.01 0.01 79 1013.1
20260506201450 77 105 0.0 1.0 0.00 0.01 0.01 79 1013.3
20260506200947 76 124 1.0 2.0 0.00 0.01 0.01 79 1013.4
20260506200443 76 206 0.0 2.0 0.00 0.01 0.01 80 1013.4
20260506195939 76 190 1.0 2.0 0.00 0.01 0.01 81 1013.5
20260506195436 77 122 2.0 2.0 0.00 0.01 0.01 80 1013.5
20260506194933 77 104 0.0 3.0 0.00 0.01 0.01 79 1013.2
20260506194431 77 86 2.0 3.0 0.00 0.01 0.01 78 1013.7
20260506193927 76 226 1.0 2.0 0.00 0.01 0.01 79 1013.6
20260506193425 76 112 3.0 3.0 0.00 0.01 0.01 80 1013.6
20260506192921 76 121 0.0 2.0 0.00 0.01 0.01 81 1013.9
20260506192418 76 88 1.0 2.0 0.00 0.01 0.01 80 1013.9
20260506191914 77 336 2.0 3.0 0.00 0.01 0.01 79 1013.7
20260506191410 77 91 0.0 0.0 0.00 0.01 0.01 79 1013.9
20260506190908 76 69 0.0 0.0 0.00 0.01 0.01 81 1013.9
20260506190404 76 91 0.0 0.0 0.00 0.01 0.01 81 1014.3
20260506185901 75 115 0.0 0.0 0.00 0.01 0.01 81 1014.1
20260506185358 75 115 1.0 2.0 0.00 0.01 0.01 83 1014.3
20260506184850 74 114 0.0 1.0 0.00 0.01 0.01 83 1014.6
20260506184346 75 156 2.0 2.0 0.00 0.01 0.01 83 1014.5
20260506183844 75 157 0.0 0.0 0.00 0.01 0.01 83 1014.2
20260506183338 74 157 0.0 1.0 0.00 0.01 0.01 84 1014.7
20260506182831 74 108 0.0 0.0 0.00 0.01 0.01 83 1014.8
20260506182328 74 108 0.0 0.0 0.00 0.01 0.01 84 1014.9
20260506181825 74 127 0.0 1.0 0.00 0.01 0.01 84 1015.0
20260506181323 74 108 0.0 1.0 0.00 0.01 0.01 84 1015.2
20260506180820 74 157 0.0 0.0 0.00 0.01 0.01 85 1015.5
20260506180316 74 161 0.0 0.0 0.00 0.01 0.01 84 1015.5
20260506175812 74 204 2.0 2.0 0.00 0.01 0.01 84 1015.5
20260506175309 74 212 2.0 3.0 0.00 0.01 0.01 83 1015.4
20260506174807 75 108 1.0 2.0 0.00 0.01 0.01 82 1015.4
20260506174304 75 94 0.0 0.0 0.00 0.01 0.01 82 1015.3
20260506173801 75 187 0.0 3.0 0.00 0.01 0.01 83 1015.3
20260506173258 75 150 0.0 2.0 0.00 0.01 0.01 84 1015.5
20260506172755 74 103 2.0 3.0 0.00 0.01 0.01 85 1015.3
20260506172251 73 113 0.0 3.0 0.00 0.01 0.01 86 1015.3
20260506171749 73 357 1.0 1.0 0.00 0.01 0.01 87 1015.1
20260506171246 72 358 1.0 2.0 0.00 0.01 0.01 87 1015.2
20260506170744 72 213 0.0 0.0 0.00 0.01 0.01 89 1015.1
20260506170240 71 213 0.0 1.0 0.00 0.01 0.01 89 1014.9
20260506165738 71 200 0.0 0.0 0.00 0.01 0.01 90 1015.0
20260506165235 71 134 0.0 0.0 0.00 0.01 0.01 92 1015.0
20260506164732 71 195 0.0 0.0 0.00 0.01 0.01 92 1015.0
20260506164229 70 195 0.0 0.0 0.00 0.01 0.01 93 1015.3
20260506163726 70 187 0.0 0.0 0.00 0.01 0.01 93 1015.4
20260506163220 69 195 0.0 1.0 0.00 0.01 0.01 93 1015.2
20260506162717 69 195 0.0 0.0 0.00 0.01 0.01 94 1015.4
20260506162214 69 195 0.0 1.0 0.00 0.01 0.01 94 1015.5
20260506161712 69 195 0.0 0.0 0.00 0.01 0.01 93 1015.5
20260506161209 69 220 0.0 2.0 0.00 0.01 0.01 93 1015.8
20260506160706 69 181 3.0 3.0 0.00 0.01 0.01 93 1016.0
20260506160202 69 209 0.0 2.0 0.00 0.01 0.01 92 1015.9
20260506155701 69 185 0.0 0.0 0.00 0.01 0.01 92 1015.8
20260506155158 67 6 0.0 1.0 0.00 0.01 0.01 96 1015.0
20260506153306 67 6 0.0 0.0 0.00 0.01 0.01 97 1015.1
20260506152803 66 6 0.0 0.0 0.00 0.01 0.01 97 1014.9
20260506152300 66 6 0.0 1.0 0.00 0.01 0.01 97 1015.6
20260506151759 66 6 0.0 0.0 0.00 0.01 0.01 97 1015.5
20260506151255 66 46 1.0 1.0 0.00 0.01 0.01 97 1015.4
20260506150751 66 147 0.0 0.0 0.00 0.01 0.01 97 1017.0
20260506150249 66 159 0.0 1.0 0.00 0.01 0.01 96 1016.8
20260506145746 66 153 0.0 0.0 0.00 0.01 0.01 96 1017.1
20260506145242 66 153 1.0 1.0 0.00 0.01 0.01 96 1016.6
20260506144740 66 153 0.0 1.0 0.07 0.01 0.01 95 1016.3
20260506144237 66 220 0.0 1.0 0.07 0.01 0.01 94 1016.5
20260506143734 67 158 1.0 3.0 0.00 0.00 0.00 93 1016.6
20260506143231 67 58 0.0 0.0 0.00 0.00 0.00 92 1015.8
20260506142730 67 58 0.0 0.0 0.00 0.00 0.00 92 1015.8
20260506142228 67 106 1.0 1.0 0.00 0.00 0.00 91 1015.0
20260506141725 67 87 0.0 0.0 0.00 0.00 0.00 90 1016.0
20260506141224 67 129 0.0 0.0 0.00 0.00 0.00 88 1016.3
20260506140721 67 129 0.0 0.0 0.00 0.00 0.00 88 1015.9
20260506140218 67 130 1.0 2.0 0.00 0.00 0.00 87 1016.0
20260506135714 67 109 0.0 0.0 0.00 0.00 0.00 87 1016.0
20260506135211 67 122 2.0 3.0 0.00 0.00 0.00 86 1015.8
20260506134708 67 123 2.0 3.0 0.00 0.00 0.00 86 1015.6
20260506134204 68 131 0.0 2.0 0.00 0.00 0.00 85 1015.6
20260506133701 68 141 2.0 3.0 0.00 0.00 0.00 85 1015.6
20260506133157 68 125 0.0 0.0 0.00 0.00 0.00 85 1015.2
20260506132655 68 122 1.0 2.0 0.00 0.00 0.00 84 1015.5
20260506132151 68 122 1.0 2.0 0.00 0.00 0.00 84 1014.9
20260506131649 67 126 0.0 2.0 0.00 0.00 0.00 84 1015.0
20260506131145 67 118 0.0 1.0 0.00 0.00 0.00 84 1015.3
20260506130642 67 110 1.0 1.0 0.00 0.00 0.00 84 1015.4
20260506130140 67 140 1.0 2.0 0.00 0.00 0.00 84 1015.4
20260506125638 67 139 0.0 1.0 0.00 0.00 0.00 84 1015.2
20260506125135 67 141 0.0 1.0 0.00 0.00 0.00 84 1015.1
20260506124633 67 141 0.0 0.0 0.00 0.00 0.00 84 1014.9
20260506124131 67 137 0.0 1.0 0.00 0.00 0.00 84 1014.8
20260506123628 67 152 1.0 2.0 0.00 0.00 0.00 83 1014.9
20260506123127 67 143 0.0 0.0 0.00 0.00 0.00 84 1014.6
20260506122623 67 153 0.0 1.0 0.00 0.00 0.00 84 1014.7
20260506122121 67 138 0.0 0.0 0.00 0.00 0.00 83 1014.6
20260506121618 67 138 0.0 0.0 0.00 0.00 0.00 83 1014.6
20260506121114 67 138 0.0 0.0 0.00 0.00 0.00 83 1014.6
20260506120613 67 138 0.0 0.0 0.00 0.00 0.00 83 1014.7
20260506120110 67 137 0.0 0.0 0.00 0.00 0.00 83 1014.7
20260506115608 67 137 0.0 0.0 0.00 0.00 0.00 83 1014.7
20260506115106 67 140 0.0 0.0 0.00 0.00 0.00 82 1014.5
20260506114603 67 140 0.0 0.0 0.00 0.00 0.00 82 1014.6
20260506114101 67 139 0.0 1.0 0.00 0.00 0.00 82 1014.5
20260506113558 67 138 0.0 0.0 0.00 0.00 0.00 82 1014.4
20260506113055 67 138 0.0 0.0 0.00 0.00 0.00 81 1014.6
20260506112552 67 138 0.0 0.0 0.00 0.00 0.00 82 1014.5
20260506112049 67 138 0.0 0.0 0.00 0.00 0.00 82 1014.4
20260506111547 67 138 0.0 0.0 0.00 0.00 0.00 81 1014.3
20260506111044 67 138 0.0 0.0 0.00 0.00 0.00 81 1014.1
20260506110542 67 138 0.0 0.0 0.00 0.00 0.00 81 1014.2
20260506110039 67 138 0.0 0.0 0.00 0.00 0.00 82 1014.2
20260506105535 67 138 0.0 0.0 0.00 0.00 0.00 82 1013.8
20260506105032 67 138 0.0 0.0 0.00 0.00 0.00 81 1013.7
20260506104530 67 138 0.0 0.0 0.00 0.00 0.00 81 1013.7
20260506104028 67 138 0.0 0.0 0.00 0.00 0.00 82 1013.7
20260506103525 67 137 0.0 0.0 0.00 0.00 0.00 82 1013.5
20260506103021 67 137 0.0 0.0 0.00 0.00 0.00 82 1013.6
20260506102520 67 138 0.0 0.0 0.00 0.00 0.00 81 1013.7
20260506102011 67 137 0.0 0.0 0.00 0.00 0.00 81 1013.5
20260506101508 67 137 0.0 0.0 0.00 0.00 0.00 80 1013.7
20260506101005 67 138 0.0 0.0 0.00 0.00 0.00 80 1013.7
20260506100503 67 137 0.0 0.0 0.00 0.00 0.00 80 1013.8
20260506100001 67 137 0.0 0.0 0.00 0.00 0.00 80 1013.6
20260506095500 67 147 0.0 0.0 0.00 0.00 0.00 80 1013.5
20260506094955 67 141 0.0 1.0 0.00 0.00 0.00 80 1013.6
20260506094454 67 140 0.0 0.0 0.00 0.00 0.00 80 1013.7
20260506093951 67 154 0.0 0.0 0.00 0.00 0.00 80 1013.4
20260506093449 67 140 0.0 1.0 0.00 0.00 0.00 80 1013.2
20260506092946 67 142 0.0 0.0 0.00 0.00 0.00 79 1013.4
20260506092444 67 140 1.0 1.0 0.00 0.00 0.00 79 1013.1
20260506091940 67 141 0.0 0.0 0.00 0.00 0.00 79 1013.2
20260506091439 67 141 0.0 1.0 0.00 0.00 0.00 79 1013.0
20260506090936 67 143 1.0 2.0 0.00 0.00 0.00 79 1013.1
20260506090434 67 152 0.0 1.0 0.00 0.00 0.00 79 1013.0
20260506085930 67 152 0.0 1.0 0.00 0.00 0.00 79 1013.1
20260506085427 67 152 0.0 1.0 0.00 0.00 0.00 79 1013.0
20260506084923 67 152 0.0 0.0 0.00 0.00 0.00 79 1013.0
20260506084420 66 147 0.0 0.0 0.00 0.00 0.00 80 1012.9
20260506083916 66 147 0.0 0.0 0.00 0.00 0.00 79 1012.9
20260506083414 66 147 0.0 0.0 0.00 0.00 0.00 79 1013.0
20260506082911 66 147 0.0 0.0 0.00 0.00 0.00 78 1013.0
20260506082408 66 147 0.0 0.0 0.00 0.00 0.00 78 1013.0
20260506081903 66 147 0.0 0.0 0.00 0.00 0.00 78 1013.2
20260506081402 66 147 0.0 0.0 0.00 0.00 0.00 78 1012.9
20260506080859 66 147 0.0 0.0 0.00 0.00 0.00 79 1013.2
20260506080355 66 147 0.0 0.0 0.00 0.00 0.00 78 1013.1
20260506073339 66 147 0.0 0.0 0.00 0.00 0.00 76 1013.1
20260506072836 66 147 0.0 0.0 0.00 0.00 0.00 76 1013.1
20260506072334 67 147 0.0 0.0 0.00 0.00 0.00 74 1013.3
20260506071831 67 147 0.0 0.0 0.00 0.00 0.00 74 1013.1
20260506071329 67 147 0.0 0.0 0.00 0.00 0.00 73 1013.4
20260506070820 67 146 0.0 1.0 0.00 0.00 0.00 72 1013.2
20260506070317 67 145 0.0 1.0 0.00 0.00 0.00 71 1013.1
20260506062254 68 112 0.0 1.0 0.00 0.00 0.00 66 1013.7
20260506061750 69 112 0.0 1.0 0.00 0.00 0.00 65 1013.7
20260506061247 69 115 0.0 1.0 0.00 0.00 0.00 64 1013.8
20260506060746 69 118 0.0 1.0 0.00 0.00 0.00 64 1013.8
20260506060243 70 118 0.0 1.0 0.00 0.00 0.00 62 1014.2
20260506051209 71 121 0.0 1.0 0.00 0.00 0.00 57 1014.1
20260506050707 71 98 0.0 0.0 0.00 0.00 0.00 57 1014.1
20260506050204 71 94 0.0 0.0 0.00 0.00 0.00 57 1014.0
20260506044655 71 99 1.0 2.0 0.00 0.00 0.00 55 1014.1
20260506044151 71 351 1.0 1.0 0.00 0.00 0.00 57 1014.2
20260506043649 71 83 0.0 1.0 0.00 0.00 0.00 56 1013.9
20260506043147 71 11 1.0 2.0 0.00 0.00 0.00 56 1013.8
20260506042646 71 24 1.0 1.0 0.00 0.00 0.00 56 1013.9
20260506042143 71 20 0.0 1.0 0.00 0.00 0.00 55 1014.1
20260506041642 70 257 0.0 0.0 0.00 0.00 0.00 55 1013.9
20260506041138 70 258 0.0 1.0 0.00 0.00 0.00 56 1014.2
20260506040636 70 258 0.0 2.0 0.00 0.00 0.00 55 1014.2
20260506040132 71 39 0.0 2.0 0.00 0.00 0.00 55 1014.2
20260506035629 70 30 0.0 0.0 0.00 0.00 0.00 55 1014.2
20260506035125 70 356 1.0 1.0 0.00 0.00 0.00 55 1014.4
20260506034623 70 24 0.0 1.0 0.00 0.00 0.00 55 1014.1
20260506034120 70 20 0.0 0.0 0.00 0.00 0.00 55 1014.0
20260506033617 70 20 0.0 1.0 0.00 0.00 0.00 56 1013.9
20260506033114 70 20 0.0 1.0 0.00 0.00 0.00 56 1013.8
20260506032606 71 20 0.0 2.0 0.00 0.00 0.00 55 1013.5
20260506032103 70 45 0.0 1.0 0.00 0.00 0.00 55 1013.7
20260506031600 71 89 0.0 0.0 0.00 0.00 0.00 56 1014.0
20260506031056 71 90 0.0 0.0 0.00 0.00 0.00 55 1014.2
20260506030555 71 124 0.0 1.0 0.00 0.00 0.00 54 1014.3
20260506030052 71 103 0.0 1.0 0.00 0.00 0.00 54 1014.4
20260506025549 71 43 0.0 1.0 0.00 0.00 0.00 54 1014.5
20260506025045 71 43 0.0 0.0 0.00 0.00 0.00 55 1014.4
20260506024542 71 54 0.0 0.0 0.00 0.00 0.00 55 1014.4
20260506024038 70 43 0.0 0.0 0.00 0.00 0.00 56 1014.4
20260506023534 70 43 0.0 0.0 0.00 0.00 0.00 56 1014.2
20260506023032 70 43 0.0 0.0 0.00 0.00 0.00 56 1014.3
20260506022529 70 43 0.0 0.0 0.00 0.00 0.00 56 1014.1
20260506022027 71 43 0.0 0.0 0.00 0.00 0.00 55 1014.2
20260506021524 71 54 0.0 0.0 0.00 0.00 0.00 55 1014.0
20260506021021 71 43 0.0 0.0 0.00 0.00 0.00 55 1013.9
20260506020519 71 43 0.0 0.0 0.00 0.00 0.00 56 1013.8
20260506020016 71 43 0.0 1.0 0.00 0.00 0.00 55 1013.9
20260506015513 71 43 0.0 0.0 0.00 0.00 0.00 55 1013.7
20260506015010 71 58 0.0 0.0 0.00 0.00 0.00 54 1013.8
20260506014508 71 58 0.0 0.0 0.00 0.00 0.00 54 1013.8
20260506014003 71 58 0.0 0.0 0.00 0.00 0.00 54 1013.7
20260506013502 71 83 0.0 1.0 0.00 0.00 0.00 53 1013.7
20260506012957 71 128 0.0 0.0 0.00 0.00 0.00 52 1014.0
20260506012454 72 128 0.0 0.0 0.00 0.00 0.00 53 1014.0
20260506011951 72 132 0.0 1.0 0.00 0.00 0.00 50 1013.8
20260506011448 72 121 0.0 0.0 0.00 0.00 0.00 51 1013.8
20260506010945 72 121 0.0 1.0 0.00 0.00 0.00 51 1013.7
20260506010444 72 131 0.0 0.0 0.00 0.00 0.00 50 1013.7
20260506005939 72 131 0.0 0.0 0.00 0.00 0.00 50 1013.5
20260506005438 72 131 0.0 0.0 0.00 0.00 0.00 49 1013.7
20260506004932 72 63 0.0 0.0 0.00 0.00 0.00 50 1013.6
20260506004431 72 136 0.0 1.0 0.00 0.00 0.00 48 1013.4
20260506003927 72 102 0.0 1.0 0.00 0.00 0.00 49 1013.5
20260506003423 71 109 0.0 0.0 0.00 0.00 0.00 50 1013.5
20260506002920 71 109 0.0 1.0 0.00 0.00 0.00 49 1013.4
20260506002416 71 109 0.0 1.0 0.00 0.00 0.00 49 1013.6
20260506001911 72 109 0.0 0.0 0.00 0.00 0.00 49 1013.4
20260506001409 72 109 0.0 0.0 0.00 0.00 0.00 49 1013.5
20260506000906 72 110 0.0 1.0 0.00 0.00 0.00 48 1013.4
20260506000404 72 88 0.0 0.0 0.00 0.00 0.00 47 1013.5
20260505235900 73 88 0.0 0.0 0.00 0.00 0.00 50 1013.5
20260505235358 73 106 0.0 0.0 0.00 0.00 0.00 49 1013.4
20260505234855 73 106 0.0 0.0 0.00 0.00 0.00 48 1013.5
20260505234352 74 105 0.0 0.0 0.00 0.00 0.00 48 1013.6
20260505233849 74 105 0.0 0.0 0.00 0.00 0.00 48 1013.4
20260505233347 75 105 0.0 0.0 0.00 0.00 0.00 47 1013.6
20260505232844 76 105 0.0 0.0 0.00 0.00 0.00 46 1013.9
20260505232342 76 105 0.0 0.0 0.00 0.00 0.00 45 1013.8
20260505231838 76 105 0.0 0.0 0.00 0.00 0.00 44 1013.6
20260505231336 76 99 0.0 1.0 0.00 0.00 0.00 44 1013.6
20260505230834 76 99 0.0 2.0 0.00 0.00 0.00 44 1013.6
20260505230331 77 128 0.0 1.0 0.00 0.00 0.00 43 1013.7
20260505225827 77 107 0.0 0.0 0.00 0.00 0.00 43 1013.7
20260505225325 78 116 0.0 1.0 0.00 0.00 0.00 43 1013.6
20260505224820 78 54 0.0 0.0 0.00 0.00 0.00 42 1013.6
20260505224318 77 117 0.0 0.0 0.00 0.00 0.00 44 1013.7
20260505223815 75 106 0.0 0.0 0.00 0.00 0.00 49 1013.7
20260505223312 75 106 0.0 0.0 0.00 0.00 0.00 48 1013.8
20260505222807 75 352 0.0 0.0 0.00 0.00 0.00 47 1013.8
20260505222305 75 352 1.0 1.0 0.00 0.00 0.00 45 1013.6
20260505221801 76 352 0.0 0.0 0.00 0.00 0.00 46 1013.6
20260505221257 75 352 0.0 0.0 0.00 0.00 0.00 46 1013.6
20260505220754 76 352 0.0 0.0 0.00 0.00 0.00 45 1013.7
20260505220252 76 352 0.0 0.0 0.00 0.00 0.00 42 1013.8
20260505215750 76 352 0.0 0.0 0.00 0.00 0.00 43 1013.8
20260505215247 76 83 0.0 0.0 0.00 0.00 0.00 44 1013.8
20260505214745 76 8 0.0 1.0 0.00 0.00 0.00 44 1013.9
20260505214242 76 106 0.0 1.0 0.00 0.00 0.00 40 1014.1
20260505213739 76 139 0.0 0.0 0.00 0.00 0.00 43 1013.9
20260505213236 76 92 1.0 1.0 0.00 0.00 0.00 41 1014.0
20260505212732 76 92 0.0 1.0 0.00 0.00 0.00 41 1013.7
20260505212230 76 182 0.0 1.0 0.00 0.00 0.00 42 1013.5
20260505211727 76 121 0.0 0.0 0.00 0.00 0.00 42 1013.7
20260505211224 77 135 2.0 2.0 0.00 0.00 0.00 40 1013.6
20260505210720 76 115 0.0 1.0 0.00 0.00 0.00 40 1013.6
20260505210217 76 157 0.0 1.0 0.00 0.00 0.00 41 1013.7
20260505205715 77 107 0.0 1.0 0.00 0.00 0.00 41 1013.7
20260505205213 78 64 1.0 3.0 0.00 0.00 0.00 39 1013.8
20260505204708 77 91 0.0 6.0 0.00 0.00 0.00 40 1014.0